Location: ??????????
(44.2167°N, 135.5333°E)
Time: 14:34:32
(UTC+00:00)

Cosmos 2228 Rocket - Pass Details

Date: 15 June 2025
Orbit: 612 x 647 km, 82.5° (Epoch: 15 July)

Event Time Altitude Azimuth Distance (km) Brightness Sun altitude
Exits shadow 13:30:48 42° 128° (SE) 907 3.5 -19.5°
Maximum altitude 13:31:40 48° 93° (E) 827 3.5 -19.6°
Drops below altitude 10° 13:35:57 10° 20° (NNE) 2,009 6.4 -19.9°
Sets 13:38:13 0° 14° (NNE) 2,915 7.4 -20.0°
